RH
35 32 30 26 23 22 21 19 19 19 18 18 18 18 19 20 20 19 18 16 16 15 13 12 11 11 12 11 12 14 12 10 10 10 12 13 16 18 20 19 17 15 15 15 15 12 12
35 29 27 25 23 20 18 18 18 19 18 20 20 20 20 21 23 21 19 18 17 15 15 14 13 13 14 14 15 14 12 10 9 10 12 14 18 19 20 21 20 17 15 14 13 12 10
39 33 25 21 20 18 18 18 20 20 21 22 22 21 22 24 24 22 20 19 18 17 17 17 16 15 15 16 17 15 13 11 11 10 13 15 18 21 22 22 22 19 15 14 13 13 12
47 39 35 27 23 21 21 21 21 23 24 24 23 23 23 25 26 23 22 22 21 20 19 19 19 18 18 19 18 16 15 15 14 13 14 16 17 22 24 24 22 19 16 15 14 14 12
51 46 42 38 32 27 24 22 23 24 25 24 26 28 28 29 28 26 25 25 24 23 22 23 23 19 22 20 20 16 16 15 14 15 17 18 21 23 25 26 29 23 20 15 16 17 15
56 54 49 45 38 33 27 25 25 26 27 28 28 30 33 34 33 31 30 28 26 27 24 24 24 23 25 23 19 18 17 16 17 17 19 21 22 25 27 30 33 24 20 16 16 18 16
60 59 53 52 48 42 34 30 29 29 30 31 32 35 37 37 36 35 34 32 29 29 26 27 28 26 23 21 19 20 18 17 20 20 24 26 27 28 24 27 25 26 25 18 25 21 19
62 61 60 58 56 53 47 41 38 38 39 39 40 43 42 40 39 38 37 35 36 35 35 33 29 24 24 22 21 22 21 20 22 23 26 31 30 22 22 27 28 26 24 22 24 24 19
73 69 65 63 62 62 61 56 50 49 48 47 48 48 46 43 42 42 42 41 40 39 41 33 30 26 26 25 26 26 23 22 23 24 28 32 28 26 24 24 28 28 28 26 24 28 27
79 77 75 71 67 68 68 67 65 62 59 54 53 52 52 48 47 45 46 44 44 43 45 35 32 31 30 27 31 31 26 25 26 26 29 30 33 28 27 27 30 30 31 30 31 32 36
85 85 84 83 79 76 75 79 78 72 67 60 57 58 57 54 49 49 48 47 46 50 45 37 35 34 33 32 32 32 28 28 27 30 31 31 38 37 31 26 28 32 33 36 37 40 36
84 85 87 86 87 87 86 85 87 81 73 68 65 63 59 61 57 53 52 49 52 52 42 38 41 36 34 34 36 35 35 31 30 30 31 33 36 40 39 36 30 32 33 38 42 41 40
90 88 87 89 90 91 91 90 85 84 81 75 70 66 64 63 59 60 54 53 55 56 42 43 42 37 35 37 39 41 39 38 35 34 37 35 36 39 39 40 39 36 36 47 44 49 38
97 94 92 93 93 93 97 94 96 89 84 82 74 72 69 67 67 61 57 55 51 46 49 44 42 38 39 40 42 42 41 43 42 40 42 49 41 43 42 44 42 44 40 46 34 53 49
93 97 97 95 96 98 97 96 96 93 88 86 82 78 76 74 72 64 63 64 53 49 48 48 43 41 42 45 43 46 48 46 42 44 44 52 46 48 49 50 48 47 51 43 48 46 53
93 96 97 98 99 99 98 98 96 93 92 91 89 86 84 81 75 68 68 61 57 53 52 51 46 42 41 46 44 46 42 42 44 44 44 47 52 48 53 53 54 54 50 53 54 55 59
92 93 98 99 98 99 99 99 99 97 96 95 95 94 85 86 79 75 71 64 63 59 55 53 52 50 51 51 49 47 43 45 44 44 46 49 51 49 54 57 57 58 58 56 57 57 60
90 91 93 97 98 98 98 99 99 99 98 98 97 96 93 89 86 79 72 64 59 61 60 58 56 55 53 54 53 50 48 47 49 50 54 56 61 64 58 55 56 57 60 59 71 60 67
78 92 97 97 98 99 98 99 98 99 98 98 98 97 95 93 87 83 73 67 63 62 62 64 61 58 57 57 53 49 51 53 54 54 58 62 68 74 64 61 62 59 61 61 60 64 68
62 79 92 98 98 98 98 99 98 98 98 98 97 96 95 93 88 82 75 71 68 65 64 61 61 62 59 59 58 61 61 59 57 59 60 64 68 70 76 72 74 72 65 64 73 80 66
33 58 81 90 95 97 98 98 98 98 98 98 96 93 88 89 87 79 76 72 72 72 67 66 64 61 61 65 62 63 64 66 65 63 65 66 71 71 72 74 79 81 79 74 75 73 78
30 41 60 73 88 96 98 99 98 97 98 98 97 93 91 86 80 78 79 76 72 72 73 73 68 67 66 65 60 65 67 70 67 67 68 70 76 74 76 71 72 74 74 76 77 74 74
35 42 58 69 77 87 97 98 98 97 98 98 97 93 85 83 80 81 78 75 70 71 75 71 69 70 67 65 64 65 65 65 66 69 70 69 69 73 71 63 68 68 62 68 69 73 76
40 48 53 65 77 80 89 97 92 92 93 97 91 85 80 80 84 81 73 73 69 69 71 71 68 67 64 61 59 58 56 56 59 61 65 69 70 70 73 66 74 46 51 57 65 70 70
46 51 60 69 74 75 80 77 77 77 83 89 83 80 77 80 74 69 71 71 72 72 74 72 67 62 58 56 55 55 53 51 46 47 52 60 67 71 75 74 57 48 48 53 55 59 65
49 62 72 77 81 82 86 81 71 71 80 84 77 77 76 68 70 67 68 70 73 71 70 71 65 61 57 52 54 63 59 50 48 50 50 54 62 71 75 75 70 52 51 49 49 59 55
66 68 74 83 90 89 85 79 71 67 69 66 57 57 66 64 62 68 66 65 63 61 62 61 59 58 56 56 59 62 61 51 54 55 58 65 70 69 74 78 66 52 48 52 56 54 51
76 85 88 96 93 87 84 79 74 64 59 60 57 54 56 58 57 59 62 61 61 59 58 56 58 56 53 51 50 50 55 52 53 49 59 65 71 70 71 76 70 49 48 53 53 52 53
91 97 97 96 91 85 77 69 67 69 67 65 67 70 65 59 61 62 62 59 56 55 53 52 49 48 46 49 49 50 52 54 52 57 46 52 51 57 67 63 53 53 53 55 54 53 53